Temp
-5 -5 -4 -4 -4 -4 -4 -4 -4 -4 -3 -3 -4 -4 -3 -3 -3 -3 -3 -3 -4 -5 -4 -4 -4 -4 -4 -4 -4 -4 -4 -4 -5 -5 -3 -4 -5 -5 -5 -5 -4 -4 -5 -5 -4
-5 -5 -5 -5 -4 -4 -4 -4 -4 -4 -3 -3 -3 -3 -3 -3 -3 -3 -3 -3 -4 -5 -4 -4 -4 -4 -4 -4 -4 -4 -4 -4 -4 -4 -4 -4 -4 -5 -5 -4 -4 -4 -4 -4 -4
-6 -5 -5 -5 -5 -4 -4 -4 -4 -4 -3 -3 -3 -3 -3 -3 -3 -3 -3 -3 -3 -4 -5 -5 -4 -4 -4 -4 -4 -4 -4 -5 -4 -4 -5 -3 -4 -5 -5 -4 -4 -4 -4 -4 -4
-6 -6 -5 -5 -5 -5 -4 -4 -4 -4 -3 -3 -3 -3 -3 -3 -3 -2 -3 -3 -3 -4 -6 -5 -4 -4 -4 -4 -5 -5 -5 -4 -5 -4 -3 -4 -3 -5 -5 -5 -5 -4 -4 -4 -4
-7 -6 -6 -6 -5 -5 -5 -4 -4 -4 -4 -3 -3 -3 -3 -3 -3 -3 -3 -3 -3 -3 -5 -6 -5 -5 -5 -4 -5 -6 -4 -4 -4 -3 -4 -4 -4 -4 -4 -5 -5 -4 -4 -4 -4
-7 -7 -6 -6 -6 -6 -5 -5 -5 -4 -4 -4 -4 -3 -3 -3 -3 -3 -3 -3 -4 -4 -4 -5 -4 -5 -6 -4 -6 -4 -4 -4 -3 -4 -4 -4 -4 -3 -4 -4 -5 -5 -4 -4 -4
-7 -7 -7 -6 -6 -6 -6 -5 -5 -4 -4 -4 -4 -4 -4 -4 -3 -3 -3 -3 -4 -4 -4 -4 -5 -4 -5 -5 -4 -5 -5 -5 -4 -4 -5 -4 -4 -4 -4 -4 -5 -5 -5 -4 -4
-7 -7 -7 -7 -6 -6 -6 -5 -5 -5 -4 -4 -4 -4 -4 -4 -4 -4 -4 -4 -4 -4 -5 -4 -4 -5 -6 -6 -5 -4 -5 -5 -4 -5 -4 -4 -4 -4 -4 -5 -5 -5 -5 -4 -4
-7 -7 -7 -7 -7 -6 -6 -6 -5 -5 -5 -5 -5 -5 -5 -5 -5 -5 -4 -4 -4 -4 -5 -4 -4 -5 -6 -7 -5 -5 -5 -5 -4 -5 -5 -4 -5 -5 -5 -4 -5 -5 -5 -4 -4
-8 -8 -8 -7 -7 -7 -7 -6 -6 -6 -6 -5 -5 -5 -5 -5 -5 -5 -5 -4 -4 -4 -4 -4 -4 -5 -6 -7 -7 -6 -5 -5 -6 -5 -5 -4 -5 -5 -5 -4 -4 -4 -5 -5 -4
-8 -8 -8 -8 -7 -7 -7 -7 -6 -6 -6 -6 -5 -5 -5 -5 -5 -4 -4 -4 -5 -5 -5 -4 -4 -5 -6 -6 -7 -7 -6 -5 -6 -5 -5 -5 -5 -5 -5 -4 -3 -4 -4 -4 -5
-8 -8 -8 -8 -7 -7 -7 -7 -7 -6 -6 -6 -6 -6 -6 -5 -5 -5 -5 -5 -5 -5 -5 -5 -5 -6 -6 -6 -6 -7 -6 -6 -7 -6 -6 -5 -5 -4 -4 -4 -5 -4 -4 -4 -4
-8 -8 -8 -8 -7 -7 -7 -7 -7 -7 -7 -7 -6 -6 -6 -6 -6 -5 -5 -5 -5 -5 -5 -5 -6 -5 -5 -5 -5 -7 -7 -7 -6 -7 -6 -7 -5 -4 -5 -5 -6 -5 -4 -3 -4
-9 -8 -8 -8 -8 -8 -8 -7 -7 -7 -7 -7 -7 -7 -7 -7 -7 -6 -6 -6 -6 -5 -5 -5 -6 -6 -5 -5 -5 -5 -7 -7 -7 -6 -6 -7 -6 -5 -4 -5 -6 -6 -5 -4 -3
-8 -8 -8 -8 -8 -8 -8 -8 -8 -7 -7 -7 -7 -7 -7 -7 -7 -7 -7 -7 -7 -6 -6 -5 -5 -6 -5 -5 -6 -5 -8 -8 -8 -7 -5 -7 -6 -6 -5 -5 -6 -6 -6 -4 -4
-8 -8 -8 -8 -8 -8 -8 -8 -8 -8 -7 -7 -7 -7 -7 -7 -7 -7 -7 -7 -7 -6 -6 -6 -6 -5 -6 -6 -6 -6 -6 -7 -8 -7 -5 -7 -7 -5 -5 -4 -5 -5 -6 -4 -4
-8 -8 -8 -8 -8 -8 -8 -8 -8 -8 -7 -8 -8 -8 -8 -8 -8 -8 -8 -8 -7 -6 -7 -7 -6 -6 -6 -6 -7 -7 -7 -8 -8 -7 -4 -6 -7 -5 -6 -6 -5 -5 -6 -6 -4
-8 -8 -8 -9 -9 -9 -9 -8 -8 -8 -8 -9 -8 -8 -8 -9 -8 -8 -8 -8 -7 -7 -7 -7 -8 -7 -8 -7 -7 -8 -8 -8 -9 -7 -6 -7 -6 -4 -7 -7 -6 -5 -6 -6 -5
-8 -8 -8 -9 -9 -9 -9 -9 -8 -8 -9 -8 -9 -9 -9 -9 -9 -9 -9 -9 -8 -8 -8 -8 -8 -9 -9 -9 -8 -9 -9 -8 -9 -8 -7 -8 -7 -6 -7 -7 -7 -5 -5 -6 -5
-9 -9 -9 -9 -9 -9 -9 -9 -9 -9 -9 -9 -9 -9 -10 -10 -10 -10 -10 -10 -10 -10 -10 -9 -9 -9 -9 -10 -10 -9 -10 -10 -11 -9 -8 -6 -7 -6 -6 -6 -7 -6 -6 -7 -6
-9 -10 -10 -10 -10 -10 -10 -9 -9 -10 -10 -10 -10 -10 -10 -10 -11 -11 -11 -11 -11 -11 -11 -11 -10 -9 -10 -11 -11 -11 -10 -11 -10 -11 -10 -8 -7 -6 -7 -7 -7 -7 -7 -6 -6
-10 -10 -10 -10 -10 -10 -10 -10 -10 -10 -10 -10 -10 -11 -11 -11 -11 -12 -12 -12 -12 -11 -11 -12 -12 -11 -11 -11 -13 -12 -12 -11 -12 -10 -11 -10 -6 -7 -7 -7 -7 -7 -5 -7 -7
-11 -11 -10 -11 -11 -10 -10 -10 -10 -10 -10 -10 -11 -11 -11 -11 -11 -12 -12 -13 -12 -12 -12 -12 -12 -12 -12 -12 -14 -13 -13 -12 -13 -12 -10 -11 -6 -8 -8 -7 -7 -7 -6 -6 -6
-11 -11 -11 -11 -11 -11 -11 -11 -11 -10 -10 -10 -12 -12 -12 -12 -12 -13 -13 -13 -13 -13 -13 -13 -13 -13 -13 -14 -14 -14 -14 -13 -12 -13 -11 -10 -9 -9 -9 -8 -7 -7 -6 -6 -5
-12 -12 -12 -11 -12 -12 -12 -12 -12 -11 -10 -11 -11 -12 -12 -13 -14 -14 -14 -14 -14 -13 -13 -13 -14 -14 -14 -15 -15 -14 -14 -13 -13 -13 -12 -10 -10 -9 -10 -8 -7 -7 -6 -6 -6
-12 -12 -12 -12 -12 -12 -12 -12 -12 -12 -13 -13 -12 -13 -12 -12 -14 -14 -14 -14 -14 -15 -15 -15 -14 -15 -15 -15 -15 -15 -14 -14 -13 -13 -13 -11 -11 -9 -10 -9 -8 -7 -8 -6 -6
-12 -12 -12 -13 -13 -12 -13 -12 -12 -13 -13 -13 -13 -13 -13 -14 -15 -15 -14 -14 -15 -15 -16 -16 -16 -16 -15 -17 -16 -16 -14 -15 -15 -14 -13 -12 -11 -10 -11 -10 -8 -8 -7 -8 -9
Height
5879 5882 5885 5888 5890 5893 5895 5897 5899 5900 5901 5902 5903 5903 5904 5906 5907 5906 5906 5906 5908 5910 5912 5912 5913 5914 5913 5915 5912 5912 5905 5913 5912 5913 5914 5916 5919 5918 5913 5913 5913 5912 5911 5911 5909
5877 5880 5883 5885 5887 5890 5893 5895 5898 5899 5900 5901 5902 5903 5903 5905 5907 5906 5906 5906 5906 5910 5914 5913 5913 5914 5913 5915 5915 5915 5911 5914 5916 5914 5915 5913 5917 5918 5916 5916 5916 5914 5914 5913 5913
5875 5878 5881 5883 5886 5888 5891 5893 5896 5898 5899 5900 5901 5901 5903 5904 5905 5905 5905 5905 5906 5908 5912 5914 5914 5914 5913 5917 5918 5917 5915 5916 5915 5918 5917 5917 5918 5919 5920 5918 5917 5917 5917 5916 5915
5875 5877 5879 5881 5884 5886 5889 5891 5893 5896 5898 5899 5899 5901 5901 5902 5904 5904 5905 5904 5906 5907 5909 5913 5914 5914 5913 5914 5915 5917 5916 5916 5915 5918 5918 5917 5917 5921 5918 5917 5918 5918 5920 5919 5919
5874 5875 5877 5879 5882 5884 5886 5889 5891 5893 5895 5897 5898 5899 5900 5900 5901 5903 5904 5904 5904 5906 5907 5910 5911 5913 5914 5914 5915 5917 5916 5912 5910 5910 5918 5918 5921 5921 5922 5920 5920 5919 5920 5921 5922
5873 5874 5876 5877 5879 5881 5884 5886 5888 5890 5892 5894 5895 5897 5899 5899 5899 5900 5902 5903 5904 5905 5906 5908 5910 5910 5913 5914 5915 5915 5918 5917 5912 5915 5917 5919 5923 5923 5922 5920 5920 5920 5920 5923 5923
5872 5873 5874 5876 5877 5879 5881 5883 5885 5887 5889 5890 5892 5894 5897 5897 5897 5899 5900 5902 5903 5904 5903 5906 5910 5910 5914 5916 5916 5915 5916 5915 5917 5915 5904 5917 5921 5924 5921 5921 5921 5921 5921 5924 5925
5870 5871 5872 5873 5875 5876 5878 5880 5882 5884 5886 5887 5889 5891 5893 5895 5897 5898 5899 5899 5901 5901 5902 5902 5907 5910 5910 5912 5914 5917 5916 5916 5913 5914 5915 5919 5921 5922 5921 5921 5921 5922 5922 5924 5927
5868 5869 5870 5871 5872 5874 5875 5877 5879 5881 5882 5884 5886 5887 5889 5891 5893 5894 5895 5896 5898 5899 5900 5901 5903 5906 5908 5911 5915 5915 5915 5914 5916 5915 5918 5920 5918 5920 5920 5921 5921 5922 5924 5924 5926
5865 5866 5867 5868 5870 5871 5872 5874 5876 5878 5879 5881 5882 5885 5886 5887 5888 5890 5892 5893 5895 5896 5898 5899 5901 5902 5904 5910 5911 5909 5910 5910 5910 5913 5916 5920 5919 5919 5920 5920 5920 5923 5925 5925 5926
5863 5864 5864 5865 5867 5868 5871 5872 5874 5875 5876 5876 5878 5878 5879 5882 5883 5884 5887 5889 5890 5893 5894 5895 5898 5901 5900 5904 5904 5904 5905 5907 5908 5911 5915 5917 5918 5916 5918 5918 5919 5922 5924 5926 5925
5860 5861 5862 5863 5864 5866 5867 5868 5870 5871 5873 5873 5874 5874 5877 5877 5878 5880 5882 5884 5886 5888 5889 5892 5895 5895 5895 5898 5900 5901 5900 5903 5903 5908 5909 5911 5914 5915 5915 5915 5918 5920 5923 5925 5925
5857 5858 5859 5860 5861 5863 5864 5866 5868 5868 5870 5870 5871 5872 5873 5874 5874 5875 5876 5877 5879 5882 5884 5886 5890 5890 5891 5892 5893 5896 5899 5901 5902 5903 5906 5906 5906 5911 5913 5912 5915 5918 5919 5922 5923
5855 5855 5856 5857 5860 5860 5862 5864 5865 5866 5867 5868 5868 5868 5869 5869 5870 5870 5870 5873 5873 5875 5876 5879 5883 5884 5886 5888 5888 5889 5893 5896 5896 5897 5899 5899 5901 5903 5908 5910 5912 5914 5915 5917 5920
5853 5853 5854 5855 5856 5858 5859 5860 5862 5863 5864 5865 5866 5864 5864 5865 5865 5866 5866 5866 5866 5867 5870 5872 5874 5876 5879 5880 5880 5886 5885 5885 5885 5888 5893 5895 5893 5901 5899 5903 5909 5910 5911 5913 5918
5850 5850 5851 5852 5853 5855 5855 5857 5859 5861 5859 5860 5860 5859 5859 5859 5858 5858 5859 5858 5859 5861 5861 5863 5866 5868 5871 5874 5877 5879 5878 5878 5878 5879 5882 5891 5887 5892 5892 5902 5905 5907 5908 5911 5915
5846 5847 5847 5847 5848 5849 5851 5852 5854 5854 5855 5856 5854 5854 5854 5853 5853 5852 5851 5849 5852 5854 5853 5854 5855 5858 5859 5861 5867 5871 5873 5872 5872 5872 5878 5883 5880 5886 5889 5897 5900 5903 5905 5908 5911
5842 5843 5842 5842 5842 5844 5845 5846 5847 5849 5849 5848 5849 5848 5847 5848 5847 5846 5845 5843 5844 5844 5843 5842 5848 5847 5850 5853 5856 5857 5862 5863 5862 5866 5869 5872 5871 5884 5888 5890 5894 5897 5900 5902 5907
5838 5838 5838 5838 5837 5838 5840 5840 5841 5843 5843 5843 5842 5843 5842 5840 5841 5839 5837 5836 5836 5836 5835 5833 5836 5838 5840 5841 5844 5854 5848 5859 5853 5859 5858 5860 5869 5878 5878 5880 5885 5888 5892 5896 5900
5834 5833 5833 5833 5833 5833 5834 5834 5836 5837 5837 5837 5837 5835 5836 5834 5833 5831 5830 5828 5828 5826 5825 5824 5822 5827 5830 5829 5834 5838 5848 5845 5846 5848 5849 5854 5860 5868 5872 5873 5878 5882 5885 5890 5892
5829 5828 5828 5828 5828 5829 5829 5830 5831 5832 5832 5831 5829 5828 5827 5828 5828 5826 5824 5822 5818 5820 5817 5815 5814 5814 5817 5821 5825 5830 5839 5835 5835 5837 5839 5843 5852 5864 5866 5867 5868 5873 5879 5885 5887
5824 5824 5823 5823 5824 5824 5824 5824 5824 5824 5826 5825 5823 5821 5820 5818 5818 5818 5817 5815 5812 5805 5812 5810 5806 5803 5804 5810 5813 5820 5825 5822 5821 5828 5828 5832 5841 5854 5855 5860 5862 5867 5865 5874 5881
5816 5818 5817 5818 5818 5818 5818 5818 5818 5816 5816 5816 5815 5813 5811 5810 5809 5809 5808 5807 5804 5801 5797 5801 5798 5794 5792 5799 5803 5803 5805 5809 5809 5813 5820 5823 5832 5844 5846 5850 5854 5853 5856 5866 5864
5810 5812 5812 5812 5812 5812 5812 5810 5809 5808 5807 5808 5808 5804 5802 5802 5799 5799 5799 5799 5795 5793 5789 5787 5787 5785 5784 5787 5789 5791 5796 5802 5801 5803 5808 5813 5822 5833 5837 5840 5843 5846 5852 5856 5858
5804 5805 5805 5805 5806 5805 5804 5803 5802 5798 5797 5797 5797 5796 5794 5793 5792 5790 5789 5788 5784 5783 5782 5776 5776 5774 5775 5776 5775 5781 5788 5793 5796 5799 5798 5808 5810 5820 5827 5831 5832 5838 5845 5849 5854
5797 5798 5797 5797 5797 5798 5796 5796 5796 5794 5791 5787 5787 5786 5783 5781 5782 5780 5778 5777 5777 5775 5770 5767 5765 5761 5763 5765 5761 5764 5775 5778 5784 5787 5791 5800 5805 5811 5816 5822 5826 5831 5837 5840 5845
5791 5792 5792 5789 5788 5789 5789 5788 5788 5786 5783 5782 5779 5776 5776 5774 5769 5769 5768 5767 5765 5763 5762 5758 5753 5750 5752 5752 5749 5752 5760 5763 5768 5775 5783 5790 5794 5800 5805 5813 5820 5823 5825 5829 5835
Wind_Speed
17 17 17 15 14 13 12 12 11 7 4 2 2 4 6 3 2 3 1 3 9 10 9 7 7 7 7 4 4 8 9 4 10 14 15 15 18 15 17 16 17 17 18 18 17
15 16 17 16 14 14 14 13 11 8 5 4 3 3 4 5 3 5 5 4 5 12 10 7 6 9 7 6 7 5 11 10 13 8 10 12 15 15 16 16 15 18 15 18 19
12 13 14 15 14 14 14 13 12 9 6 5 4 4 2 3 5 7 6 6 6 8 14 12 9 8 9 4 4 5 10 12 16 13 14 9 16 10 11 15 16 17 14 15 18
9 10 12 13 13 13 14 13 11 10 7 6 6 6 4 3 8 9 8 8 7 8 14 14 11 14 11 7 6 5 4 4 14 9 9 14 12 9 10 12 13 13 13 12 15
7 8 9 10 11 12 12 11 11 10 9 7 6 6 6 5 6 6 9 9 10 8 15 15 15 15 12 9 4 3 3 5 8 19 7 12 10 9 7 9 8 10 11 11 12
7 8 8 9 9 10 11 12 11 10 9 8 7 7 7 8 6 8 10 10 10 11 14 16 13 14 12 13 8 3 7 5 2 6 6 6 6 8 5 4 4 6 8 7 10
8 9 9 10 10 11 11 11 11 11 11 10 8 8 7 11 11 10 10 11 11 12 16 15 20 17 13 9 8 9 4 6 9 8 16 6 4 6 3 6 4 3 6 5 5
11 11 11 11 11 12 12 12 12 12 13 13 11 11 10 10 8 9 9 11 13 14 17 18 15 19 15 14 11 12 11 10 6 13 6 1 1 3 6 8 10 3 4 4 7
12 13 13 14 14 14 14 14 14 14 14 14 13 13 13 11 10 12 13 15 14 15 16 18 15 14 16 14 12 11 7 10 11 9 3 6 3 2 2 3 8 6 5 5 6
10 11 12 13 14 15 15 15 15 15 15 15 15 16 15 15 14 15 14 14 15 16 17 16 17 18 20 16 13 18 25 16 9 7 7 9 4 1 4 6 1 4 0 2 4
11 12 12 13 14 14 13 13 13 13 12 13 13 14 15 16 17 20 19 19 18 17 17 19 18 17 23 21 21 21 25 21 16 13 6 3 8 6 9 10 7 5 4 6 5
12 13 13 14 14 13 13 12 12 11 9 9 8 9 9 10 13 15 16 20 21 21 22 21 18 18 23 23 27 27 26 21 21 11 12 18 12 6 6 10 8 11 11 8 6
11 13 13 13 12 10 11 12 9 8 7 6 6 7 8 9 10 13 14 15 18 21 24 24 22 24 25 26 29 33 31 21 16 16 10 13 16 8 8 4 6 12 15 15 11
8 10 12 12 10 10 14 10 9 9 6 7 7 11 12 12 11 11 12 16 19 21 25 28 27 27 29 28 32 34 33 30 24 24 19 20 13 15 9 13 11 7 13 17 15
10 11 12 12 12 15 15 12 11 11 9 10 11 12 12 11 13 10 13 15 15 21 27 31 31 34 34 34 35 33 39 36 36 33 28 23 26 12 17 13 15 11 12 16 16
13 13 14 15 17 18 19 17 15 14 16 13 14 13 13 12 12 13 14 16 19 19 24 31 35 37 36 38 36 36 39 42 41 40 39 23 23 19 23 11 20 13 11 14 16
14 15 16 17 17 20 24 21 20 19 17 14 16 15 15 15 15 15 16 19 19 21 24 27 32 37 44 43 40 39 40 40 44 42 46 30 30 21 24 16 16 16 7 11 13
15 14 15 15 18 18 19 22 22 19 14 17 15 17 18 18 20 20 20 21 22 26 29 30 26 32 42 49 44 43 42 46 47 48 46 40 35 16 16 19 17 20 12 13 10
14 15 16 16 17 16 18 20 19 10 12 14 17 19 21 23 21 22 23 24 26 27 29 31 29 28 27 49 52 44 48 44 52 51 54 48 39 31 27 30 26 26 18 13 13
15 15 15 13 12 12 12 13 11 10 15 19 19 22 20 23 24 26 25 27 27 28 30 34 38 29 24 36 50 52 49 50 45 51 55 54 40 42 33 31 30 23 23 21 24
15 15 16 14 13 11 14 15 15 13 18 19 20 22 23 22 23 24 25 28 31 26 28 34 38 38 33 27 42 48 48 53 52 47 47 58 49 33 33 31 35 25 27 24 29
20 16 17 17 15 14 16 17 19 20 20 20 21 22 24 26 25 26 26 28 28 37 28 29 37 42 39 27 33 41 47 60 53 56 50 49 54 42 41 38 37 36 41 28 23
24 21 22 21 21 20 20 19 21 24 23 23 25 25 26 26 28 25 24 25 30 34 36 30 33 37 40 28 29 43 45 56 50 53 56 52 54 46 39 35 46 50 49 39 35
23 22 20 23 24 23 20 22 25 26 27 26 22 26 29 27 28 25 24 22 27 30 33 33 30 31 33 31 34 47 45 45 49 48 57 58 54 45 42 40 36 38 34 38 41
19 17 19 23 22 21 22 25 27 30 32 32 27 25 27 28 27 26 24 21 26 29 30 37 34 33 32 30 37 43 48 44 40 41 46 58 57 50 44 44 29 38 32 41 40
16 18 21 24 25 26 29 29 28 29 32 32 30 27 30 32 27 25 27 28 27 28 31 35 38 38 38 29 40 43 47 44 41 46 44 50 49 52 49 51 34 40 34 37 42
24 26 24 26 27 28 28 29 29 28 29 29 30 32 31 29 31 28 29 28 31 32 32 37 41 43 40 31 37 44 40 49 39 36 43 49 50 57 42 51 36 38 41 38 41
Wind_Direction
212 211 218 214 210 210 205 196 194 201 213 252 303 271 235 223 196 279 293 220 150 142 121 143 187 206 222 236 290 327 167 134 179 86 91 56 61 50 52 58 65 69 77 73 60
220 215 214 216 214 212 208 204 197 201 222 260 275 272 238 227 201 257 269 256 224 162 155 167 158 223 232 241 266 288 322 111 127 86 80 51 50 46 51 53 66 75 64 66 67
218 223 221 217 216 216 214 211 205 203 217 253 263 271 262 226 210 229 248 265 249 187 172 175 176 208 217 212 219 334 34 29 137 91 81 74 62 53 53 52 57 72 73 60 64
207 217 220 218 219 219 218 217 218 217 221 236 267 254 249 232 230 230 226 244 239 218 190 181 193 222 198 208 199 159 338 39 121 126 73 54 48 56 30 52 48 65 76 69 62
190 204 213 216 217 222 227 227 227 232 238 244 258 258 247 241 233 224 226 233 242 225 201 190 205 201 212 211 229 171 221 49 146 126 26 61 36 47 0 42 42 54 75 74 72
195 196 204 211 219 219 219 227 233 239 247 256 263 255 241 240 243 221 226 224 230 227 220 212 189 253 215 218 175 168 208 169 122 102 113 78 76 45 353 341 45 55 72 83 89
212 208 208 213 213 221 224 226 230 240 251 256 256 256 229 234 234 244 236 224 222 230 235 228 209 226 228 206 197 173 202 224 178 156 144 113 35 19 12 26 20 88 62 98 91
239 231 224 224 224 224 228 232 235 239 245 250 251 254 246 244 229 237 236 242 233 222 233 242 226 238 247 235 203 199 188 171 208 117 107 228 290 108 57 44 37 127 158 125 145
240 240 240 238 236 234 234 237 240 243 247 253 257 258 261 250 240 222 226 235 237 236 240 247 244 236 234 230 197 200 197 197 223 177 143 289 278 58 19 12 42 57 146 149 164
232 233 233 235 238 240 240 242 243 247 251 253 254 256 255 253 245 244 242 243 247 244 243 249 248 230 229 210 221 227 221 210 238 277 286 274 222 287 243 271 325 14 235 198 179
229 231 232 233 233 234 237 237 239 236 237 244 246 250 249 249 249 247 241 238 235 241 245 243 241 247 234 224 221 233 229 216 233 222 234 217 218 219 286 233 246 277 287 254 215
235 236 237 240 240 238 234 230 226 212 204 216 231 249 249 249 253 256 254 250 246 240 237 244 241 233 237 230 225 226 240 227 219 226 279 252 247 223 241 223 223 262 274 258 241
240 239 240 239 234 225 209 198 199 205 204 214 238 251 256 256 255 254 253 253 251 252 248 240 235 235 238 234 225 221 230 227 232 232 203 252 250 213 187 186 191 241 254 253 240
255 246 242 242 228 211 199 212 218 202 213 234 246 256 262 264 265 262 257 254 257 254 250 247 240 237 236 236 236 226 223 227 236 232 230 233 228 222 209 174 196 238 257 230 230
257 255 248 238 231 217 217 235 237 227 245 245 242 262 265 260 254 234 243 259 264 265 256 254 247 242 235 233 235 237 220 223 231 230 222 202 229 209 236 188 184 227 258 229 218
259 256 256 250 241 230 228 240 246 251 257 268 276 269 264 270 270 265 269 264 261 286 283 262 256 244 240 240 237 235 231 226 226 225 220 200 236 220 244 226 194 220 260 241 205
257 260 261 258 252 242 236 245 255 258 268 279 275 274 280 285 287 292 290 288 281 287 296 279 264 252 243 235 233 238 233 218 218 224 220 218 235 236 238 237 204 210 220 266 201
260 261 262 264 256 252 247 247 256 266 276 268 273 278 282 286 288 289 290 295 294 295 294 295 274 266 244 241 229 228 230 217 217 222 231 232 233 215 227 233 233 226 234 237 256
256 267 263 266 263 255 252 252 258 256 262 268 280 282 285 288 289 292 292 291 294 295 296 297 286 286 274 241 237 222 225 222 223 219 227 231 225 198 213 219 229 228 237 262 263
256 263 258 247 243 238 239 244 249 267 266 277 280 281 279 281 287 291 290 293 292 298 297 297 296 291 289 249 234 230 222 217 221 226 224 229 221 223 216 225 226 234 242 254 256
254 252 250 241 241 257 257 262 261 263 276 286 286 281 282 281 278 276 280 284 288 287 290 297 302 297 298 263 236 230 219 221 219 225 230 228 220 223 205 219 230 217 246 246 252
255 249 249 242 255 258 266 267 275 274 269 277 285 288 284 281 277 272 274 278 283 286 285 291 300 297 297 287 230 219 220 222 225 216 225 229 217 206 212 210 219 222 217 211 243
258 248 251 247 250 257 265 269 274 281 285 291 299 294 287 282 283 277 278 278 282 289 290 295 297 296 295 292 226 217 217 219 232 225 217 226 216 211 225 218 218 227 227 219 203
262 258 254 258 261 272 271 274 282 284 285 289 294 289 289 290 284 276 275 284 284 285 290 289 288 291 293 294 246 227 223 220 228 233 222 218 221 209 226 230 244 216 218 224 210
267 261 258 255 257 261 268 274 279 289 294 298 293 290 286 285 274 274 277 270 275 287 283 284 284 281 279 276 251 239 225 225 229 232 233 219 222 209 220 221 215 226 239 221 223
265 258 260 262 261 264 269 273 280 286 292 291 294 290 286 292 280 263 268 276 282 280 281 279 283 277 280 280 239 237 231 229 226 226 230 227 223 220 217 219 224 225 234 209 220
261 263 265 267 270 272 273 278 288 292 288 288 288 285 296 291 275 277 279 281 281 281 269 272 276 277 281 275 240 231 227 231 232 226 219 223 224 221 213 227 214 224 229 231 234